Regional Weather Roundup
Issued by NWS

Home | Current Version | Previous Version | Graphics & Text | Print | Product List | Glossary On
Versions: 1 2 3 4 5 6 7 8 9 10 11 12 13 14 15 16 17 18 19 20 21 22 23 24 25 26 27 28 29 30 31 32 33 34 35 36 37 38 39 40 41 42 43 44 45 46 47 48 49 50
880
ASUS45 KBOI 231010
RWRID

IDAHO REGIONAL WEATHER ROUNDUP
NATIONAL WEATHER SERVICE BOISE ID
400 AM MDT SAT SEP 23 2017

NOTE: "FAIR" INDICATES FEW OR NO CLOUDS BELOW 12000 FEET
WITH NO SIGNIFICANT WEATHER AND/OR OBSTRUCTIONS TO VISIBILITY

IDZ012-014-231100-
SOUTHWEST IDAHO


CITY           SKY/WX    TMP DP  RH WIND       PRES   REMARKS
BOISE          PTCLDY    39  35  86 SE5       30.01S
CALDWELL       PTCLDY    41  40  96 W3        30.03S
MOUNTAIN HOME  CLEAR     34  34 100 CALM      30.01S
$$

IDZ016-017-231100-
SOUTHCENTRAL IDAHO


CITY           SKY/WX    TMP DP  RH WIND       PRES   REMARKS
BURLEY         CLEAR     35  32  88 SW5       30.00F WCI  31
JEROME         CLEAR     33  33 100 E6        30.01S WCI  28
TWIN FALLS     CLEAR     36  33  89 S9        30.01S WCI  29
$$

IDZ019>023-231100-
SOUTHEAST IDAHO


CITY           SKY/WX    TMP DP  RH WIND       PRES   REMARKS
IDAHO FALLS    CLEAR     34  31  88 CALM      30.03S
POCATELLO      PTCLDY    34  32  92 E3        30.02F
REXBURG        PTCLDY    34  31  88 CALM      30.02S
$$

IDZ006-010-011-018-031-032-231100-
CENTRAL IDAHO MOUNTAINS


CITY           SKY/WX    TMP DP  RH WIND       PRES   REMARKS
MCCALL         CLEAR     30  28  92 CALM      30.00S
HAILEY         CLEAR     32  32 100 NW5       30.01S WCI  27
STANLEY          N/A     32  31  96 CALM      30.01F
SALMON         CLOUDY    42  34  73 E3        30.03S
CHALLIS        MOCLDY    35  34  96 CALM      30.00F
$$

IDZ002-004-006-007-026-231100-
NORTHERN IDAHO


CITY           SKY/WX    TMP DP  RH WIND       PRES   REMARKS
LEWISTON       CLOUDY    48  46  93 CALM      30.05S
LOWELL           N/A     43  40  89 CALM      30.10S
COEUR D`ALENE  CLOUDY    47  40  76 S7        30.04S
MULLAN PASS    CLOUDY    32  26  78 SW5       30.01F WCI  27
$$




USA.gov is the U.S. government's official web portal to all federal, state and local government web resources and services.